Time,TemperatureF,DewpointF,PressureIn,WindDirection,WindDirectionDegrees,WindSpeedMPH,WindSpeedGustMPH,Humidity,HourlyPrecipIn,Conditions,Clouds,dailyrainin,SoftwareType,DateUTC
2013-08-23 00:01:00,66.6,60.0,30.07,West,278,0.0,0.0,80,0.00,,,0.00,weatherlink.com 1.10,2013-08-23 04:01:00,
2013-08-23 00:16:00,66.7,60.0,30.07,West,276,0.0,0.0,80,0.00,,,0.00,weatherlink.com 1.10,2013-08-23 04:16:00,
2013-08-23 00:31:00,66.3,60.0,30.08,West,278,0.0,0.0,80,0.00,,,0.00,weatherlink.com 1.10,2013-08-23 04:31:00,
2013-08-23 00:46:00,65.8,60.0,30.08,West,278,0.0,0.0,81,0.00,,,0.00,weatherlink.com 1.10,2013-08-23 04:46:00,
2013-08-23 01:01:00,65.1,59.0,30.08,West,276,0.0,0.0,81,0.00,,,0.00,weatherlink.com 1.10,2013-08-23 05:01:00,
2013-08-23 01:16:00,64.7,59.0,30.09,West,278,0.0,0.0,81,0.00,,,0.00,weatherlink.com 1.10,2013-08-23 05:16:00,
2013-08-23 01:31:00,64.1,58.0,30.09,West,277,0.0,0.0,81,0.00,,,0.00,weatherlink.com 1.10,2013-08-23 05:31:00,
2013-08-23 01:46:00,63.5,58.0,30.10,West,278,0.0,0.0,81,0.00,,,0.00,weatherlink.com 1.10,2013-08-23 05:46:00,
2013-08-23 02:01:00,63.2,57.0,30.09,West,278,0.0,0.0,81,0.00,,,0.00,weatherlink.com 1.10,2013-08-23 06:01:00,
2013-08-23 02:16:00,62.7,57.0,30.09,West,278,0.0,0.0,81,0.00,,,0.00,weatherlink.com 1.10,2013-08-23 06:16:00,
2013-08-23 02:31:00,62.2,56.0,30.09,West,278,0.0,0.0,81,0.00,,,0.00,weatherlink.com 1.10,2013-08-23 06:31:00,
2013-08-23 02:46:00,61.8,56.0,30.09,West,278,0.0,0.0,82,0.00,,,0.00,weatherlink.com 1.10,2013-08-23 06:46:00,
2013-08-23 03:01:00,61.2,56.0,30.09,West,278,0.0,0.0,82,0.00,,,0.00,weatherlink.com 1.10,2013-08-23 07:01:00,
2013-08-23 03:16:00,60.6,55.0,30.09,West,278,0.0,0.0,82,0.00,,,0.00,weatherlink.com 1.10,2013-08-23 07:16:00,
2013-08-23 03:31:00,60.1,55.0,30.09,West,278,0.0,0.0,82,0.00,,,0.00,weatherlink.com 1.10,2013-08-23 07:31:00,
2013-08-23 03:46:00,59.7,54.0,30.09,West,278,0.0,0.0,82,0.00,,,0.00,weatherlink.com 1.10,2013-08-23 07:46:00,
2013-08-23 04:01:00,59.3,54.0,30.10,West,278,0.0,0.0,82,0.01,,,0.01,weatherlink.com 1.10,2013-08-23 08:01:00,
2013-08-23 04:16:00,58.9,53.0,30.10,West,278,0.0,0.0,82,0.01,,,0.01,weatherlink.com 1.10,2013-08-23 08:16:00,
2013-08-23 04:31:00,58.4,53.0,30.10,West,278,0.0,0.0,82,0.01,,,0.01,weatherlink.com 1.10,2013-08-23 08:31:00,
2013-08-23 04:46:00,57.9,53.0,30.10,West,278,0.0,0.0,83,0.01,,,0.01,weatherlink.com 1.10,2013-08-23 08:46:00,
2013-08-23 05:01:00,57.4,52.0,30.10,West,278,0.0,0.0,83,0.00,,,0.01,weatherlink.com 1.10,2013-08-23 09:01:00,
2013-08-23 05:17:00,57.0,52.0,30.11,West,278,0.0,0.0,83,0.00,,,0.01,weatherlink.com 1.10,2013-08-23 09:17:00,
2013-08-23 05:32:00,56.6,52.0,30.11,West,278,0.0,0.0,83,0.00,,,0.01,weatherlink.com 1.10,2013-08-23 09:32:00,
2013-08-23 05:47:00,56.1,51.0,30.11,West,278,0.0,0.0,83,0.00,,,0.01,weatherlink.com 1.10,2013-08-23 09:47:00,
2013-08-23 06:02:00,55.8,51.0,30.11,West,278,0.0,0.0,83,0.00,,,0.01,weatherlink.com 1.10,2013-08-23 10:02:00,
2013-08-23 06:17:00,55.3,50.0,30.11,West,278,0.0,0.0,83,0.00,,,0.01,weatherlink.com 1.10,2013-08-23 10:17:00,
2013-08-23 06:32:00,54.8,50.0,30.12,West,278,0.0,0.0,83,0.00,,,0.01,weatherlink.com 1.10,2013-08-23 10:32:00,
2013-08-23 06:47:00,54.5,50.0,30.13,West,278,0.0,0.0,84,0.00,,,0.01,weatherlink.com 1.10,2013-08-23 10:47:00,
2013-08-23 07:02:00,54.3,50.0,30.13,West,278,0.0,0.0,84,0.00,,,0.01,weatherlink.com 1.10,2013-08-23 11:02:00,
2013-08-23 07:17:00,54.2,50.0,30.14,West,278,0.0,0.0,84,0.00,,,0.01,weatherlink.com 1.10,2013-08-23 11:17:00,
2013-08-23 07:32:00,54.2,50.0,30.14,West,278,0.0,0.0,84,0.00,,,0.01,weatherlink.com 1.10,2013-08-23 11:32:00,
2013-08-23 07:47:00,54.1,49.0,30.14,West,278,0.0,0.0,84,0.00,,,0.01,weatherlink.com 1.10,2013-08-23 11:47:00,
2013-08-23 08:02:00,54.9,51.0,30.15,West,278,0.0,0.0,85,0.00,,,0.01,weatherlink.com 1.10,2013-08-23 12:02:00,
2013-08-23 08:17:00,55.8,51.0,30.15,West,278,0.0,0.0,85,0.00,,,0.01,weatherlink.com 1.10,2013-08-23 12:17:00,
2013-08-23 08:32:00,56.7,53.0,30.16,West,278,0.0,0.0,86,0.00,,,0.01,weatherlink.com 1.10,2013-08-23 12:32:00,
2013-08-23 08:47:00,57.6,53.0,30.16,NW,309,0.0,0.0,85,0.00,,,0.01,weatherlink.com 1.10,2013-08-23 12:47:00,
2013-08-23 09:02:00,59.0,55.0,30.16,SE,143,0.0,1.0,85,0.00,,,0.01,weatherlink.com 1.10,2013-08-23 13:02:00,
2013-08-23 09:17:00,60.5,56.0,30.16,ESE,123,0.0,1.0,85,0.00,,,0.01,weatherlink.com 1.10,2013-08-23 13:17:00,
2013-08-23 09:32:00,62.9,58.0,30.17,East,86,1.0,2.0,84,0.00,,,0.01,weatherlink.com 1.10,2013-08-23 13:32:00,
2013-08-23 09:47:00,65.8,58.0,30.17,East,98,0.0,2.0,75,0.00,,,0.01,weatherlink.com 1.10,2013-08-23 13:47:00,
2013-08-23 10:02:00,68.3,57.0,30.17,North,6,1.0,4.0,68,0.00,,,0.01,weatherlink.com 1.10,2013-08-23 14:02:00,
2013-08-23 10:17:00,69.8,56.0,30.17,NNE,22,0.0,2.0,62,0.00,,,0.01,weatherlink.com 1.10,2013-08-23 14:17:00,
2013-08-23 10:32:00,71.6,54.0,30.18,ENE,70,0.0,2.0,54,0.00,,,0.01,weatherlink.com 1.10,2013-08-23 14:32:00,
2013-08-23 10:47:00,73.4,55.0,30.18,ENE,60,0.0,3.0,52,0.00,,,0.01,weatherlink.com 1.10,2013-08-23 14:47:00,
2013-08-23 11:02:00,74.8,54.0,30.18,South,188,0.0,2.0,49,0.00,,,0.01,weatherlink.com 1.10,2013-08-23 15:02:00,
2013-08-23 11:18:00,75.7,54.0,30.18,WNW,290,0.0,3.0,47,0.00,,,0.01,weatherlink.com 1.10,2013-08-23 15:18:00,
2013-08-23 11:33:00,75.7,53.0,30.18,NNW,347,2.0,3.0,46,0.00,,,0.01,weatherlink.com 1.10,2013-08-23 15:33:00,
2013-08-23 11:48:00,76.9,51.0,30.18,ENE,68,1.0,3.0,41,0.00,,,0.01,weatherlink.com 1.10,2013-08-23 15:48:00,
2013-08-23 12:03:00,77.8,54.0,30.17,ENE,62,0.0,2.0,44,0.00,,,0.01,weatherlink.com 1.10,2013-08-23 16:03:00,
2013-08-23 12:18:00,78.7,54.0,30.17,WNW,294,0.0,3.0,42,0.00,,,0.01,weatherlink.com 1.10,2013-08-23 16:18:00,
2013-08-23 12:33:00,78.7,54.0,30.16,SW,226,1.0,4.0,42,0.00,,,0.01,weatherlink.com 1.10,2013-08-23 16:33:00,
2013-08-23 12:48:00,79.3,52.0,30.16,SSW,201,0.0,4.0,39,0.00,,,0.01,weatherlink.com 1.10,2013-08-23 16:48:00,
2013-08-23 13:03:00,79.7,53.0,30.16,NE,42,2.0,3.0,39,0.00,,,0.01,weatherlink.com 1.10,2013-08-23 17:03:00,
2013-08-23 13:17:00,79.7,53.0,30.16,NE,34,0.0,5.0,40,0.00,,,0.01,weatherlink.com 1.10,2013-08-23 17:17:00,
2013-08-23 13:33:00,80.5,53.0,30.15,NNW,338,1.0,4.0,38,0.00,,,0.01,weatherlink.com 1.10,2013-08-23 17:33:00,
2013-08-23 13:48:00,80.7,53.0,30.15,NNW,331,2.0,4.0,38,0.00,,,0.01,weatherlink.com 1.10,2013-08-23 17:48:00,
2013-08-23 14:03:00,80.5,55.0,30.15,NNW,343,2.0,6.0,41,0.00,,,0.01,weatherlink.com 1.10,2013-08-23 18:03:00,
2013-08-23 14:18:00,80.8,53.0,30.15,NNW,332,2.0,6.0,38,0.00,,,0.01,weatherlink.com 1.10,2013-08-23 18:18:00,
2013-08-23 14:33:00,81.8,53.0,30.15,NE,40,2.0,3.0,37,0.00,,,0.01,weatherlink.com 1.10,2013-08-23 18:33:00,
2013-08-23 14:47:00,82.1,52.0,30.15,NE,55,2.0,5.0,35,0.00,,,0.01,weatherlink.com 1.10,2013-08-23 18:47:00,
2013-08-23 15:02:00,82.0,52.0,30.14,SE,129,1.0,5.0,36,0.00,,,0.01,weatherlink.com 1.10,2013-08-23 19:02:00,
2013-08-23 15:17:00,82.0,52.0,30.13,NNW,327,0.0,5.0,35,0.00,,,0.01,weatherlink.com 1.10,2013-08-23 19:17:00,
2013-08-23 15:32:00,82.3,52.0,30.13,WSW,249,1.0,4.0,35,0.00,,,0.01,weatherlink.com 1.10,2013-08-23 19:32:00,
2013-08-23 15:47:00,81.5,51.0,30.13,WSW,242,1.0,4.0,34,0.00,,,0.01,weatherlink.com 1.10,2013-08-23 19:47:00,
2013-08-23 16:02:00,82.5,52.0,30.12,NNW,328,0.0,3.0,35,0.00,,,0.01,weatherlink.com 1.10,2013-08-23 20:02:00,
2013-08-23 16:17:00,83.7,53.0,30.12,SW,232,0.0,2.0,35,0.00,,,0.01,weatherlink.com 1.10,2013-08-23 20:17:00,
2013-08-23 16:32:00,83.2,51.0,30.12,NNW,331,2.0,3.0,33,0.00,,,0.01,weatherlink.com 1.10,2013-08-23 20:32:00,
2013-08-23 16:47:00,83.0,51.0,30.12,South,174,0.0,3.0,33,0.00,,,0.01,weatherlink.com 1.10,2013-08-23 20:47:00,
2013-08-23 17:02:00,84.0,52.0,30.12,NNW,330,1.0,5.0,33,0.00,,,0.01,weatherlink.com 1.10,2013-08-23 21:02:00,
2013-08-23 17:17:00,83.2,52.0,30.12,North,10,1.0,6.0,34,0.00,,,0.01,weatherlink.com 1.10,2013-08-23 21:17:00,
2013-08-23 17:32:00,83.4,51.0,30.12,West,280,3.0,5.0,33,0.00,,,0.01,weatherlink.com 1.10,2013-08-23 21:32:00,
2013-08-23 17:47:00,83.8,51.0,30.11,NNW,333,0.0,3.0,32,0.00,,,0.01,weatherlink.com 1.10,2013-08-23 21:47:00,
2013-08-23 18:02:00,84.0,51.0,30.11,NNW,330,1.0,2.0,32,0.00,,,0.01,weatherlink.com 1.10,2013-08-23 22:02:00,
2013-08-23 18:18:00,83.5,51.0,30.12,West,271,2.0,4.0,33,0.00,,,0.01,weatherlink.com 1.10,2013-08-23 22:18:00,
2013-08-23 18:33:00,83.2,52.0,30.12,WSW,253,0.0,4.0,34,0.00,,,0.01,weatherlink.com 1.10,2013-08-23 22:33:00,
2013-08-23 18:48:00,84.0,53.0,30.12,SSW,207,0.0,4.0,34,0.00,,,0.01,weatherlink.com 1.10,2013-08-23 22:48:00,
2013-08-23 19:03:00,83.4,51.0,30.11,ENE,64,0.0,-999.0,33,-99.99,,,0.01,weatherlink.com 1.10,2013-08-23 23:03:00,
2013-08-23 19:18:00,83.7,53.0,30.11,SW,219,0.0,1.0,35,0.00,,,0.01,weatherlink.com 1.10,2013-08-23 23:18:00,
2013-08-23 19:33:00,82.8,52.0,30.12,ENE,76,0.0,2.0,35,0.00,,,0.01,weatherlink.com 1.10,2013-08-23 23:33:00,
2013-08-23 19:48:00,83.0,53.0,30.12,SSW,208,1.0,2.0,36,0.00,,,0.01,weatherlink.com 1.10,2013-08-23 23:48:00,
2013-08-23 20:03:00,79.2,58.0,30.12,West,281,1.0,4.0,49,0.00,,,0.01,weatherlink.com 1.10,2013-08-24 00:03:00,
2013-08-23 20:18:00,76.8,58.0,30.12,WNW,295,2.0,5.0,53,0.00,,,0.01,weatherlink.com 1.10,2013-08-24 00:18:00,
2013-08-23 20:33:00,75.5,59.0,30.12,WNW,297,1.0,4.0,56,0.00,,,0.01,weatherlink.com 1.10,2013-08-24 00:33:00,
2013-08-23 20:48:00,74.4,59.0,30.12,WNW,287,2.0,3.0,58,0.00,,,0.01,weatherlink.com 1.10,2013-08-24 00:48:00,
2013-08-23 21:03:00,73.2,58.0,30.13,West,280,0.0,3.0,60,0.00,,,0.01,weatherlink.com 1.10,2013-08-24 01:03:00,
2013-08-23 21:18:00,72.0,58.0,30.14,West,270,0.0,1.0,62,0.00,,,0.01,weatherlink.com 1.10,2013-08-24 01:18:00,
2013-08-23 21:33:00,71.0,58.0,30.15,West,269,0.0,0.0,64,0.00,,,0.01,weatherlink.com 1.10,2013-08-24 01:33:00,
2013-08-23 21:49:00,69.7,58.0,30.15,West,262,0.0,0.0,67,0.00,,,0.01,weatherlink.com 1.10,2013-08-24 01:49:00,
2013-08-23 22:03:00,68.8,59.0,30.16,West,263,0.0,1.0,70,0.00,,,0.01,weatherlink.com 1.10,2013-08-24 02:03:00,
2013-08-23 22:18:00,68.4,58.0,30.16,West,262,0.0,0.0,70,0.00,,,0.01,weatherlink.com 1.10,2013-08-24 02:18:00,
2013-08-23 22:33:00,67.3,58.0,30.17,West,263,0.0,0.0,73,0.00,,,0.01,weatherlink.com 1.10,2013-08-24 02:33:00,
2013-08-23 22:48:00,66.5,58.0,30.16,West,262,0.0,0.0,75,0.00,,,0.01,weatherlink.com 1.10,2013-08-24 02:48:00,
2013-08-23 23:03:00,65.6,58.0,30.17,West,263,0.0,0.0,76,0.00,,,0.01,weatherlink.com 1.10,2013-08-24 03:03:00,
2013-08-23 23:18:00,64.9,58.0,30.17,West,263,0.0,0.0,77,0.00,,,0.01,weatherlink.com 1.10,2013-08-24 03:18:00,
2013-08-23 23:33:00,65.0,58.0,30.17,West,263,0.0,0.0,77,0.00,,,0.01,weatherlink.com 1.10,2013-08-24 03:33:00,
2013-08-23 23:48:00,64.4,57.0,30.17,West,263,0.0,0.0,78,0.00,,,0.01,weatherlink.com 1.10,2013-08-24 03:48:00,